TimeMST,TemperatureF,Dew PointF,Humidity,Sea Level PressureIn,VisibilityMPH,Wind Direction,Wind SpeedMPH,Gust SpeedMPH,PrecipitationIn,Events,Conditions,WindDirDegrees,DateUTC
12:53 AM,35.1,27.0,72,29.76,10.0,South,26.5,31.1,N/A,,Overcast,180,2014-02-16 07:53:00
1:53 AM,36.0,28.0,73,29.73,10.0,South,20.7,-,N/A,,Overcast,180,2014-02-16 08:53:00
2:53 AM,36.0,28.0,73,29.69,10.0,South,19.6,-,N/A,,Mostly Cloudy,180,2014-02-16 09:53:00
3:53 AM,36.0,28.0,73,29.66,10.0,South,16.1,-,N/A,,Clear,170,2014-02-16 10:53:00
4:53 AM,37.9,28.9,70,29.62,10.0,South,15.0,-,N/A,,Clear,170,2014-02-16 11:53:00
5:53 AM,41.0,28.9,62,29.61,10.0,South,13.8,-,N/A,,Clear,180,2014-02-16 12:53:00
6:53 AM,44.1,28.0,53,29.57,10.0,SSW,28.8,32.2,N/A,,Clear,200,2014-02-16 13:53:00
7:53 AM,43.0,28.9,58,29.56,10.0,South,16.1,-,N/A,,Clear,180,2014-02-16 14:53:00
8:53 AM,46.9,28.0,48,29.52,10.0,SW,23.0,31.1,N/A,,Clear,220,2014-02-16 15:53:00
9:53 AM,48.0,28.0,46,29.49,10.0,SW,28.8,38.0,N/A,,Clear,220,2014-02-16 16:53:00
10:53 AM,50.0,30.0,46,29.49,10.0,SW,28.8,36.8,N/A,,Clear,220,2014-02-16 17:53:00
11:53 AM,54.0,33.1,45,29.44,10.0,SW,24.2,34.5,N/A,,Clear,230,2014-02-16 18:53:00
12:53 PM,54.0,34.0,47,29.42,10.0,SW,25.3,31.1,N/A,,Clear,220,2014-02-16 19:53:00
1:53 PM,55.9,35.1,45,29.42,10.0,SW,19.6,25.3,N/A,,Clear,230,2014-02-16 20:53:00
2:53 PM,53.1,32.0,45,29.44,10.0,WSW,21.9,27.6,N/A,,Clear,240,2014-02-16 21:53:00
3:53 PM,41.0,34.0,76,29.60,7.0,NW,25.3,34.5,0.07,Rain,Light Rain,310,2014-02-16 22:53:00
4:22 PM,37.4,33.8,87,29.60,10.0,NNW,21.9,-,0.00,,Overcast,330,2014-02-16 23:22:00
4:53 PM,34.0,32.0,92,29.69,2.0,NNW,28.8,38.0,0.00,Snow,Light Snow,330,2014-02-16 23:53:00
4:55 PM,33.8,30.2,87,29.65,1.5,NNW,24.2,38.0,0.00,Snow,Light Snow,340,2014-02-16 23:55:00
4:59 PM,33.8,30.2,87,29.65,0.8,NNW,28.8,35.7,0.00,Snow,Light Snow,330,2014-02-16 23:59:00
5:07 PM,33.8,30.2,87,29.65,0.5,NNW,24.2,39.1,0.00,Fog-Snow,Light Snow,340,2014-02-17 00:07:00
5:12 PM,33.8,30.2,87,29.66,0.8,NNW,20.7,34.5,0.00,Snow,Light Snow,340,2014-02-17 00:12:00
5:23 PM,33.8,30.2,87,29.71,1.0,NW,19.6,-,0.00,Snow,Light Snow,320,2014-02-17 00:23:00
5:33 PM,33.8,30.2,87,29.72,2.0,NW,15.0,-,0.02,Snow,Light Snow,320,2014-02-17 00:33:00
5:41 PM,32.0,30.2,93,29.73,0.8,NNW,17.3,-,0.04,Snow,Light Snow,330,2014-02-17 00:41:00
5:50 PM,33.8,30.2,87,29.73,0.5,NNW,15.0,23.0,0.06,Fog-Snow,Snow,330,2014-02-17 00:50:00
5:53 PM,32.0,30.9,96,29.76,0.5,NNW,13.8,23.0,0.07,Fog-Snow,Snow,330,2014-02-17 00:53:00
6:00 PM,32.0,30.2,93,29.72,1.0,NNW,18.4,25.3,0.01,Snow,Light Snow,330,2014-02-17 01:00:00
6:14 PM,32.0,30.2,93,29.74,1.2,NW,15.0,-,0.02,Snow,Light Snow,320,2014-02-17 01:14:00
6:22 PM,32.0,30.2,93,29.74,2.0,NNW,20.7,-,0.02,Snow,Light Snow,340,2014-02-17 01:22:00
6:33 PM,32.0,30.2,93,29.76,3.0,NNW,15.0,26.5,0.02,Snow,Light Snow,330,2014-02-17 01:33:00
6:53 PM,32.0,30.0,92,29.79,6.0,NNW,12.7,21.9,0.02,Snow,Light Snow,330,2014-02-17 01:53:00
7:22 PM,30.2,28.4,93,29.77,4.0,NNW,8.1,-,0.00,Snow,Light Snow,330,2014-02-17 02:22:00
7:30 PM,30.2,28.4,93,29.78,9.0,NNW,8.1,-,0.00,,Overcast,330,2014-02-17 02:30:00
7:53 PM,30.0,28.0,92,29.82,10.0,NW,5.8,-,0.00,,Mostly Cloudy,310,2014-02-17 02:53:00
8:53 PM,30.9,26.1,82,29.84,10.0,WNW,17.3,-,N/A,,Overcast,300,2014-02-17 03:53:00
9:53 PM,30.9,21.0,67,29.86,10.0,NW,17.3,-,N/A,,Partly Cloudy,310,2014-02-17 04:53:00
10:53 PM,26.1,18.0,71,29.89,10.0,West,9.2,-,N/A,,Clear,270,2014-02-17 05:53:00
11:53 PM,26.1,18.0,71,29.91,10.0,West,9.2,-,N/A,,Clear,270,2014-02-17 06:53:00